Simultaneous Nadir Overpasses (SNOs) Predictions

Prediction of SNOs between NOAA-15 and METOP-C Satellite Orbit:

Table of predicted SNOs for the next 14.0 days since TLE Epoch: 6/30/2024
Index Date (NOAA-15) Time (NOAA-15) Lat,Lon (NOAA-15) SZA (NOAA-15 ) Date (METOP-C) Time (METOP-C) Lat,Lon (METOP-C) SZA (METOP-C ) Distance(km) Time Diff (sec)
1 07/13/2024 04:03:06 -81.02, -22.00 118.82 07/13/2024 04:01:55 -80.98, -23.77 119.05 30.98 71
2 07/13/2024 04:53:38 81.03, 145.02 61.17 07/13/2024 04:52:31 81.04, 144.91 61.13 2.13 67
3 07/13/2024 05:44:07 -81.04, -47.71 118.84 07/13/2024 05:43:13 -81.04, -47.79 118.87 1.31 54
4 07/13/2024 06:34:38 81.04, 119.68 61.17 07/13/2024 06:33:52 81.05, 119.78 61.17 2.09 46
5 07/13/2024 07:25:07 -81.05, -73.06 118.84 07/13/2024 07:24:34 -81.05, -72.91 118.83 2.70 33
6 07/13/2024 08:15:38 81.04, 94.33 61.17 07/13/2024 08:15:14 81.04, 94.29 61.16 0.70 24
7 07/13/2024 09:06:07 -81.05, -98.42 118.83 07/13/2024 09:05:56 -81.04, -98.40 118.84 1.08 11
8 07/13/2024 09:56:38 81.05, 68.98 61.18 07/13/2024 09:56:35 81.05, 69.17 61.20 3.27 3
9 07/13/2024 10:47:06 -81.04,-123.40 118.81 07/13/2024 10:47:17 -81.05,-123.52 118.80 2.45 11
10 07/13/2024 11:37:38 81.05, 43.63 61.18 07/13/2024 11:37:57 81.04, 43.68 61.19 1.30 19
11 07/13/2024 12:28:06 -81.04,-148.76 118.80 07/13/2024 12:28:38 -81.06,-148.64 118.77 2.60 32
12 07/13/2024 13:18:37 81.04, 18.65 61.21 07/13/2024 13:19:18 81.05, 18.56 61.23 2.12 41
13 07/13/2024 14:09:06 -81.05,-174.11 118.80 07/13/2024 14:10:00 -81.05,-174.13 118.78 0.68 54
14 07/13/2024 14:59:38 81.06, -7.06 61.19 07/13/2024 15:00:40 81.05, -6.94 61.22 2.86 62



Historial Predications of SNOs between NOAA-15 and METOP-C
